Simultaneous Nadir Overpasses (SNOs) Predictions

Prediction of SNOs between METOP-B and NOAA-19 Satellite Orbit:

Table of predicted SNOs for the next 14.0 days since TLE Epoch: 5/6/2018
Index Date (METOP-B) Time (METOP-B) Lat,Lon (METOP-B) SZA (METOP-B ) Date (NOAA-19) Time (NOAA-19) Lat,Lon (NOAA-19) SZA (NOAA-19 ) Distance(km) Time Diff (sec)
1 05/15/2018 22:07:50 78.49,-141.48 59.65 05/15/2018 22:06:41 78.49,-143.73 59.55 49.98 69
2 05/15/2018 22:58:37 -78.29, 24.73 120.60 05/15/2018 22:57:38 -78.29, 24.80 120.61 1.69 59
3 05/15/2018 23:49:17 78.27,-168.03 59.37 05/15/2018 23:48:37 78.30,-168.02 59.39 3.02 40
4 05/16/2018 00:39:59 -78.27, -0.71 120.64 05/16/2018 00:39:39 -78.28, -0.66 120.63 1.54 20
5 05/16/2018 01:30:38 78.29, 166.75 59.38 05/16/2018 01:30:37 78.26, 166.75 59.35 4.24 1
6 05/16/2018 02:21:21 -78.25, -26.15 120.68 05/16/2018 02:21:40 -78.27, -26.11 120.66 2.26 19
7 05/16/2018 03:12:00 78.28, 141.31 59.34 05/16/2018 03:12:38 78.25, 141.29 59.32 3.01 38
8 05/16/2018 04:02:43 -78.23, -51.59 120.72 05/16/2018 04:03:41 -78.26, -51.57 120.68 3.32 58
9 05/16/2018 04:53:25 78.14, 115.22 59.16 05/16/2018 04:54:37 78.17, 116.28 59.25 24.32 72




NCC Satellite Simultaneous Nadir Overpasses (SNOs) Prediction Service
